Tracking 25934 objects as of 10-Aug-2022
HD Live streaming from Space Station
objects crossing your sky now

NINGXIA-1 10

Track NINGXIA-1 10 now!
10-day predictions


NORAD ID: 49022
Int'l Code: 2021-064E
Perigee: 866.7 km
Apogee: 879.5 km
Inclination: 45.0 °
Period: 102.3 minutes
Semi major axis: 7244 km
RCS: Unknown
Launch date: July 9, 2021
Source: People's Republic of China (PRC)
Launch site: Taiyaun Space Center, China (TSC)
aabbcc
Your satellite tracking list
Your tracking list is empty




NASA's NSSDC Master Catalog

Two Line Element Set (TLE):
1 49022U 21064E   22222.46749932 -.00000056  00000-0  44216-4 0  9997
2 49022  45.0011  99.2051 0008846   6.2701 353.8246 14.08074455 55951
Source of the keplerian elements: AFSPC